Simultaneous Nadir Overpasses (SNOs) Predictions

Prediction of SNOs between NOAA-15 and METOP-C Satellite Orbit:

Table of predicted SNOs for the next 14.0 days since TLE Epoch: 3/29/2019
Index Date (NOAA-15) Time (NOAA-15) Lat,Lon (NOAA-15) SZA (NOAA-15 ) Date (METOP-C) Time (METOP-C) Lat,Lon (METOP-C) SZA (METOP-C ) Distance(km) Time Diff (sec)
1 04/10/2019 03:21:32 -80.77, -17.39 105.60 04/10/2019 03:20:21 -80.78, -17.55 105.63 3.12 71
2 04/10/2019 04:12:04 80.78, 149.74 74.39 04/10/2019 04:11:02 80.78, 149.84 74.37 1.75 62
3 04/10/2019 05:02:36 -80.79, -43.07 105.64 04/10/2019 05:01:43 -80.77, -43.02 105.67 2.33 53
4 04/10/2019 05:53:07 80.78, 124.40 74.36 04/10/2019 05:52:24 80.77, 124.37 74.33 1.32 43
5 04/10/2019 06:43:38 -80.77, -68.05 105.65 04/10/2019 06:43:04 -80.78, -68.14 105.67 1.81 34
6 04/10/2019 07:34:10 80.79, 99.06 74.33 04/10/2019 07:33:45 80.79, 99.25 74.33 3.28 25
7 04/10/2019 08:24:41 -80.78, -93.38 105.68 04/10/2019 08:24:25 -80.80, -93.26 105.66 2.97 16
8 04/10/2019 09:15:12 80.79, 73.72 74.30 04/10/2019 09:15:06 80.78, 73.78 74.29 1.78 6
9 04/10/2019 10:05:43 -80.78,-118.72 105.71 04/10/2019 10:05:46 -80.79,-118.73 105.70 0.71 3
10 04/10/2019 10:56:14 80.78, 48.74 74.29 04/10/2019 10:56:27 80.79, 48.66 74.30 2.15 13
11 04/10/2019 11:46:46 -80.79,-144.05 105.74 04/10/2019 11:47:08 -80.78,-144.20 105.75 2.69 22
12 04/10/2019 12:37:18 80.80, 23.05 74.24 04/10/2019 12:37:49 80.78, 23.19 74.25 3.10 31
13 04/10/2019 13:27:49 -80.79,-169.38 105.77 04/10/2019 13:28:29 -80.79,-169.31 105.74 1.22 40
14 04/10/2019 14:18:20 80.79, -1.94 74.23 04/10/2019 14:19:10 80.80, -1.93 74.26 1.17 50
15 04/10/2019 15:08:52 -80.79, 165.29 105.80 04/10/2019 15:09:51 -80.79, 165.22 105.79 1.54 59
16 04/10/2019 15:59:23 80.79, -27.27 74.20 04/10/2019 16:00:32 80.79, -27.40 74.21 2.32 69




NCC Satellite Simultaneous Nadir Overpasses (SNOs) Prediction Service
